Flag for Faroe Islands Weather past 2 weeks in Tórshavn, Faroe Islands, Faroe Islands

Now
45 °F

Overcast.


Feels Like: 38 °F
Forecast: 46 / 53 °F
Wind: 13 mph from North

Location: Soervaag / Vagar

Current Time: Sep 1, 2015 at 7:29:56 AM

Latest Report: Sep 1, 2015 at 6:50 AM


Visibility: N/A

Pressure: 30.27 "Hg

Humidity: 76%

Dew point: 37 °F

Location of TórshavnLocation

Historic Weather in Tórshavn — Graph

°F

Tórshavn temperature yesterday

Maximum temperature yesterday: 52 °F (at 4:50 PM)
Minimum temperature yesterday: 45 °F (at 8:50 PM)
Average temperature yesterday: 48 °F

Past Weeks' High & Low Weather Summary

 TemperatureHumidityPressure
High68 °F (Aug 25, 9:50 AM)100% (Aug 18, 1:20 AM)30.27 "Hg (Aug 18, 1:20 AM)
Low43 °F (Sep 1, 2:20 AM)43% (Aug 25, 9:50 AM)29.15 "Hg (Aug 27, 5:20 AM)
Average53 °F89%29.75 "Hg
* Reported Aug 17 6:20 AM — Sep 1 6:20 AM, Tórshavn, Weather by CustomWeather, © 2015

Note: Actual official high and low records may vary slightly from our data, if they occured in-between our weather recording intervals... More about our weather records

Advertising

Tórshavn weather history for previous 24 hours

 ConditionsComfort  
Time TempWeatherWind HumidityBarometerVisibility
6:20 AM
Tue, Sep 1
45 °FOvercast.9 mph76%30.27 "HgN/A
5:50 AM45 °FOvercast.10 mph76%30.27 "HgN/A
4:20 AM45 °FPassing clouds.8 mph76%30.24 "HgN/A
3:50 AM45 °FQuite cool.6 mph76%30.24 "HgN/A
3:20 AM45 °FQuite cool.7 mph71%30.24 "HgN/A
2:50 AM45 °FQuite cool.9 mph71%30.24 "HgN/A
2:20 AM43 °FQuite cool.5 mph76%30.24 "HgN/A
1:50 AM45 °FQuite cool.9 mph71%30.24 "HgN/A
1:20 AM45 °FQuite cool.8 mph71%30.24 "HgN/A
12:50 AM45 °FQuite cool.12 mph71%30.24 "HgN/A
12:20 AM45 °FQuite cool.7 mph71%30.24 "HgN/A
11:50 PM
Mon, Aug 31
45 °FQuite cool.12 mph71%30.24 "HgN/A
11:20 PM45 °FQuite cool.10 mph71%30.24 "HgN/A
10:20 PM45 °FQuite cool.10 mph71%30.24 "HgN/A
9:50 PM45 °FPassing clouds.10 mph71%30.24 "HgN/A
9:20 PM45 °FPartly sunny.10 mph71%30.24 "HgN/A
8:50 PM45 °FQuite cool.12 mph71%30.24 "HgN/A
8:20 PM46 °FPassing clouds.10 mph71%30.24 "HgN/A
7:50 PM48 °FPartly sunny.12 mph66%30.21 "HgN/A
7:20 PM48 °FPassing clouds.10 mph71%30.21 "HgN/A
6:50 PM48 °FScattered clouds.10 mph71%30.21 "HgN/A
6:20 PM48 °FPartly sunny.12 mph71%30.21 "HgN/A
5:50 PM50 °FPartly sunny.10 mph67%30.21 "HgN/A
5:20 PM50 °FPartly sunny.12 mph67%30.21 "HgN/A
4:50 PM52 °FPartly sunny.14 mph67%30.21 "HgN/A
4:20 PM50 °FPartly sunny.13 mph67%30.21 "HgN/A
3:50 PM50 °FPartly sunny.14 mph67%30.21 "HgN/A
3:20 PM50 °FPartly sunny.14 mph67%30.21 "HgN/A
2:50 PM50 °FPartly sunny.12 mph67%30.21 "HgN/A
2:20 PM50 °FPartly sunny.10 mph71%30.18 "HgN/A
1:50 PM50 °FOvercast.10 mph67%30.18 "HgN/A
1:20 PM48 °FPartly sunny.12 mph76%30.18 "HgN/A
12:50 PM48 °FOvercast.13 mph76%30.18 "HgN/A
12:20 PM48 °FOvercast.10 mph76%30.18 "HgN/A
11:50 AM48 °FOvercast.12 mph76%30.18 "HgN/A
11:20 AM48 °FPartly sunny.12 mph82%30.18 "HgN/A
10:50 AM48 °FPartly sunny.12 mph82%30.18 "HgN/A
10:20 AM48 °FPartly sunny.12 mph82%30.15 "HgN/A
9:50 AM48 °FPartly sunny.10 mph82%30.15 "HgN/A
9:20 AM48 °FPartly sunny.10 mph82%30.15 "HgN/A
8:50 AM48 °FPartly sunny.10 mph76%30.15 "HgN/A
8:20 AM48 °FPartly sunny.13 mph82%30.15 "HgN/A
7:50 AM46 °FPartly sunny.13 mph87%30.15 "HgN/A
7:20 AM46 °FBroken clouds.12 mph87%30.12 "HgN/A
Weather by CustomWeather, © 2015

See weather overviewHow to use our weather pages